Location: Ferchesar
(52.6477°N, 12.4298°E)
Time: 04:26:33
(UTC+01:00)

Tiros 1 - Pass Details

Date: 10 December 2021
Orbit: 629 x 664 km, 48.4° (Epoch: 21 January)

Event Time Altitude Azimuth Distance (km) Brightness Sun altitude
Rises 22:22:49 0° 275° (W) 2,943 - -54.7°
Reaches altitude 10° 22:26:04 10° 251° (WSW) 2,037 - -55.0°
Maximum altitude 22:28:37 15° 218° (SW) 1,752 - -55.3°
Drops below altitude 10° 22:31:10 10° 185° (S) 2,044 - -55.5°
Sets 22:34:27 0° 162° (SSE) 2,958 - -55.8°
